Hourly Weather Lukashenkivs'ke

Today, 17 May, Monday

Time Temperature Precipitation Wind Pressure Humidity
00:00 +14°C° 0 mm 3 mps 742 mmHg 82%
01:00 +14°C° 0 mm 3 mps 742 mmHg 81%
02:00 +14°C° 0 mm 3 mps 741 mmHg 80%
03:00 +14°C° 0.2 mm 4 mps 740 mmHg 83%
04:00 +14°C° 0.2 mm 4 mps 740 mmHg 86%
05:00 +15°C° 0.2 mm 5 mps 739 mmHg 89%
06:00 +16°C° 0 mm 5 mps 739 mmHg 85%
07:00 +19°C° 0 mm 6 mps 738 mmHg 82%
08:00 +20°C° 0 mm 6 mps 738 mmHg 79%
09:00 +21°C° 0 mm 6 mps 738 mmHg 73%
10:00 +23°C° 0 mm 7 mps 738 mmHg 67%
11:00 +24°C° 0 mm 7 mps 737 mmHg 61%
12:00 +24°C° 0 mm 7 mps 737 mmHg 60%
13:00 +26°C° 0 mm 7 mps 737 mmHg 60%
14:00 +26°C° 0 mm 7 mps 737 mmHg 59%
15:00 +24°C° 0 mm 6 mps 737 mmHg 64%
16:00 +24°C° 0 mm 6 mps 737 mmHg 68%
17:00 +23°C° 0 mm 5 mps 737 mmHg 72%
18:00 +22°C° 0.2 mm 5 mps 737 mmHg 77%
19:00 +20°C° 0.2 mm 5 mps 737 mmHg 83%
20:00 +19°C° 0.2 mm 5 mps 737 mmHg 88%
21:00 +19°C° 0 mm 5 mps 737 mmHg 90%
22:00 +19°C° 0 mm 5 mps 737 mmHg 91%
23:00 +17°C° 0 mm 5 mps 737 mmHg 93%

Tomorrow, 18 May, Tuesday

Time Temperature Precipitation Wind Pressure Humidity
00:00 +17°C° 0 mm 5 mps 737 mmHg 94%
01:00 +18°C° 0 mm 4 mps 737 mmHg 95%
02:00 +17°C° 0 mm 3 mps 737 mmHg 96%
03:00 +17°C° 0 mm 3 mps 737 mmHg 96%
04:00 +17°C° 0 mm 3 mps 737 mmHg 96%
05:00 +17°C° 0 mm 3 mps 737 mmHg 95%
06:00 +18°C° 0 mm 3 mps 738 mmHg 91%
07:00 +19°C° 0 mm 4 mps 738 mmHg 86%
08:00 +20°C° 0 mm 4 mps 738 mmHg 82%
09:00 +19°C° 0.8 mm 5 mps 738 mmHg 83%
10:00 +19°C° 0.8 mm 5 mps 738 mmHg 83%
11:00 +19°C° 0.8 mm 6 mps 738 mmHg 84%
12:00 +19°C° 0.4 mm 6 mps 738 mmHg 84%
13:00 +19°C° 0.4 mm 6 mps 738 mmHg 83%
14:00 +19°C° 0.4 mm 6 mps 738 mmHg 83%
15:00 +19°C° 0.1 mm 5 mps 737 mmHg 82%
16:00 +19°C° 0.1 mm 5 mps 737 mmHg 81%
17:00 +19°C° 0.1 mm 4 mps 737 mmHg 80%
18:00 +18°C° 0.2 mm 4 mps 737 mmHg 84%
19:00 +17°C° 0.2 mm 3 mps 737 mmHg 89%
20:00 +16°C° 0.2 mm 3 mps 737 mmHg 93%
21:00 +14°C° 0 mm 3 mps 737 mmHg 94%
22:00 +14°C° 0 mm 3 mps 737 mmHg 95%
23:00 +13°C° 0 mm 3 mps 737 mmHg 95%

Day after tomorrow, 19 May, Wednesday

Time Temperature Precipitation Wind Pressure Humidity
00:00 +13°C° 0 mm 3 mps 737 mmHg 96%
01:00 +13°C° 0 mm 3 mps 737 mmHg 96%
02:00 +12°C° 0 mm 3 mps 737 mmHg 96%
03:00 +12°C° 0.1 mm 3 mps 737 mmHg 96%
04:00 +12°C° 0.1 mm 3 mps 738 mmHg 96%
05:00 +13°C° 0.1 mm 3 mps 738 mmHg 96%
06:00 +14°C° 0 mm 3 mps 738 mmHg 91%
07:00 +15°C° 0 mm 4 mps 738 mmHg 87%
08:00 +17°C° 0 mm 4 mps 738 mmHg 82%
09:00 +17°C° 0.2 mm 5 mps 739 mmHg 78%
10:00 +19°C° 0.2 mm 5 mps 739 mmHg 74%
11:00 +20°C° 0.2 mm 5 mps 739 mmHg 70%
12:00 +20°C° 0.5 mm 5 mps 739 mmHg 70%
13:00 +20°C° 0.5 mm 4 mps 739 mmHg 71%
14:00 +20°C° 0.5 mm 4 mps 739 mmHg 71%
15:00 +19°C° 0.6 mm 4 mps 739 mmHg 75%
16:00 +18°C° 0.6 mm 4 mps 739 mmHg 80%
17:00 +17°C° 0.6 mm 4 mps 739 mmHg 84%
18:00 +16°C° 0.4 mm 3 mps 739 mmHg 88%
19:00 +13°C° 0.4 mm 3 mps 739 mmHg 91%
20:00 +13°C° 0.4 mm 2 mps 739 mmHg 95%
21:00 +13°C° 0.3 mm 2 mps 739 mmHg 95%
22:00 +13°C° 0.3 mm 1 mps 739 mmHg 95%
23:00 +13°C° 0.3 mm 1 mps 739 mmHg 95%

20 May, Thursday

Time Temperature Precipitation Wind Pressure Humidity
00:00 +12°C° 0 mm 1 mps 738 mmHg 95%
01:00 +12°C° 0 mm 1 mps 738 mmHg 94%
02:00 +12°C° 0 mm 1 mps 738 mmHg 94%
03:00 +12°C° 0 mm 1 mps 738 mmHg 93%
04:00 +12°C° 0 mm 2 mps 738 mmHg 93%
05:00 +12°C° 0 mm 2 mps 738 mmHg 93%
06:00 +13°C° 0 mm 2 mps 737 mmHg 89%
07:00 +13°C° 0 mm 3 mps 737 mmHg 85%
08:00 +15°C° 0 mm 4 mps 737 mmHg 82%
09:00 +15°C° 0.3 mm 4 mps 737 mmHg 82%
10:00 +15°C° 0.3 mm 5 mps 737 mmHg 82%
11:00 +15°C° 0.3 mm 6 mps 738 mmHg 82%
12:00 +14°C° 0.1 mm 6 mps 738 mmHg 83%
13:00 +14°C° 0.1 mm 6 mps 738 mmHg 84%
14:00 +14°C° 0.1 mm 6 mps 738 mmHg 84%
15:00 +14°C° 0.1 mm 6 mps 738 mmHg 81%
16:00 +15°C° 0.1 mm 6 mps 739 mmHg 78%
17:00 +15°C° 0.1 mm 5 mps 739 mmHg 74%
18:00 +14°C° 0 mm 5 mps 739 mmHg 79%
19:00 +13°C° 0 mm 4 mps 739 mmHg 84%
20:00 +12°C° 0 mm 3 mps 739 mmHg 89%
21:00 +12°C° 0.1 mm 4 mps 739 mmHg 87%
22:00 +12°C° 0.1 mm 4 mps 739 mmHg 85%
23:00 +11°C° 0.1 mm 4 mps 740 mmHg 83%

21 May, Friday

Time Temperature Precipitation Wind Pressure Humidity
00:00 +11°C° 0 mm 4 mps 740 mmHg 84%
01:00 +10°C° 0 mm 5 mps 740 mmHg 84%
02:00 +10°C° 0 mm 5 mps 740 mmHg 85%
03:00 +9°C° 0 mm 5 mps 740 mmHg 86%
04:00 +8°C° 0 mm 5 mps 740 mmHg 87%
05:00 +8°C° 0 mm 5 mps 741 mmHg 88%
06:00 +8°C° 0 mm 6 mps 741 mmHg 86%
07:00 +9°C° 0 mm 6 mps 741 mmHg 83%
08:00 +9°C° 0 mm 7 mps 742 mmHg 81%
09:00 +10°C° 0 mm 7 mps 742 mmHg 80%
10:00 +10°C° 0 mm 7 mps 743 mmHg 79%
11:00 +10°C° 0 mm 7 mps 743 mmHg 78%
12:00 +13°C° 0 mm 6 mps 744 mmHg 71%
13:00 +14°C° 0 mm 6 mps 744 mmHg 64%
14:00 +15°C° 0 mm 6 mps 744 mmHg 58%
15:00 +15°C° 0 mm 5 mps 744 mmHg 59%
16:00 +15°C° 0 mm 5 mps 745 mmHg 61%
17:00 +15°C° 0 mm 4 mps 745 mmHg 63%
18:00 +13°C° 0 mm 3 mps 745 mmHg 69%
19:00 +13°C° 0 mm 2 mps 746 mmHg 75%
20:00 +10°C° 0 mm 2 mps 746 mmHg 82%
21:00 +9°C° 0 mm 2 mps 746 mmHg 83%
22:00 +9°C° 0 mm 2 mps 746 mmHg 84%
23:00 +8°C° 0 mm 2 mps 746 mmHg 86%

22 May, Saturday

Time Temperature Precipitation Wind Pressure Humidity
00:00 +7°C° 0 mm 2 mps 747 mmHg 87%
01:00 +8°C° 0 mm 1 mps 747 mmHg 88%
02:00 +8°C° 0 mm 1 mps 747 mmHg 89%
03:00 +8°C° 0 mm 1 mps 747 mmHg 87%
04:00 +8°C° 0 mm 1 mps 747 mmHg 85%
05:00 +8°C° 0 mm 1 mps 747 mmHg 83%
06:00 +10°C° 0 mm 1 mps 747 mmHg 75%
07:00 +12°C° 0 mm 2 mps 747 mmHg 68%
08:00 +14°C° 0 mm 2 mps 748 mmHg 60%
09:00 +15°C° 0 mm 2 mps 748 mmHg 57%
10:00 +16°C° 0 mm 2 mps 748 mmHg 53%
11:00 +17°C° 0 mm 3 mps 748 mmHg 49%
12:00 +17°C° 0 mm 3 mps 748 mmHg 49%
13:00 +17°C° 0 mm 3 mps 748 mmHg 49%
14:00 +18°C° 0 mm 3 mps 747 mmHg 48%
15:00 +18°C° 0 mm 2 mps 747 mmHg 51%
16:00 +17°C° 0 mm 2 mps 747 mmHg 53%
17:00 +17°C° 0 mm 2 mps 747 mmHg 55%
18:00 +16°C° 0 mm 1 mps 748 mmHg 61%
19:00 +14°C° 0 mm 1 mps 748 mmHg 66%
20:00 +12°C° 0 mm 1 mps 748 mmHg 71%
21:00 +11°C° 0 mm 1 mps 748 mmHg 73%
22:00 +11°C° 0 mm 1 mps 748 mmHg 74%
23:00 +9°C° 0 mm 2 mps 748 mmHg 76%
Show more

We Need Your Consent

Meteoprog and our Service Providers may store and access personal data such as cookies, device identifiers or other similar technologies on your device and process such data to personalise content and ads, as well as provide social media features and to analyse the traffic.

  • Store and/or access information on your device

    Cookies, device identifiers or other information can be stored or accessed on your device for the purposes indicated above.

  • Personalised ads and content, ad and content measurement, audience insights, and products development

    Ads and content can be personalised based on a profile. More data can be added to better personalise ads and content. Ad and content performance can be measured. Insights about the audience who saw the ads and content can be derived. Such data can be used to develop or improve user’s experience, systems and software.

By clicking ‘I Agree’ you will allow the use of indicated cookies, device identifiers, web beacons or other similar technologies. Your settings can be changed in the browser on your device.

For certain purposes, legitimate interests may be relied on, rather than consent. You can read more about this in our Privacy and Cookie Policy.